Location: Namasale
(1.5000°N, 32.6167°E)
Time: 09:01:43
(UTC+00:00)

Courier 1B - Pass Details

Date: 22 April 2021
Orbit: 962 x 1209 km, 28.3° (Epoch: 15 May)

Event Time Altitude Azimuth Distance (km) Brightness Sun altitude
Rises 08:01:11 0° 272° (W) 3,916 10.4 61.4°
Reaches altitude 10° 08:04:47 10° 287° (WNW) 2,909 9.9 62.2°
Maximum altitude 08:09:53 21° 334° (NNW) 2,148 9.6 63.4°
Drops below altitude 10° 08:14:47 10° 21° (NNE) 2,778 10.3 64.5°
Sets 08:18:09 0° 37° (NE) 3,691 10.8 65.2°
